GW3261 Weather Reports


time (UTC)temp
C
wind
direction
speed
KPH
gust
KPH
rain 1hr
cm
rain 24hr
cm
rain mn
cm
humidity
%
barometer
mb
20260510143048 17 32 16.1 27.4 0.00 0.00 0.00 67 1017.9
20260510141531 17 34 17.7 29.0 0.00 0.00 0.00 69 1017.6
20260510140008 17 50 12.9 27.4 0.00 0.00 0.00 72 1017.3
20260510134553 16 26 20.9 29.0 0.00 0.00 0.00 71 1017.1
20260510133034 16 32 22.5 30.6 0.00 0.00 0.00 73 1016.9
20260510131519 16 22 20.9 29.0 0.00 0.00 0.00 76 1016.7
20260510130053 16 32 19.3 25.7 0.00 0.00 0.00 76 1016.4
20260510124540 15 36 16.1 25.7 0.00 0.00 0.00 77 1016.1
20260510123021 15 46 11.3 19.3 0.00 0.00 0.00 80 1016.0
20260510121600 15 41 9.7 16.1 0.00 0.00 0.00 80 1015.7
20260510120044 14 37 6.4 16.1 0.00 0.03 0.00 81 1015.5
20260510114527 14 26 9.7 17.7 0.00 0.03 0.00 81 1015.4
20260510113008 13 38 8.0 16.1 0.00 0.03 0.00 83 1015.1
20260510111549 14 30 9.7 14.5 0.00 0.03 0.00 81 1014.7
20260510110035 13 22 9.7 14.5 0.00 0.03 0.00 81 1014.5
20260510104517 13 29 8.0 12.9 0.00 0.03 0.00 80 1014.5
20260510103054 14 360 6.4 9.7 0.00 0.03 0.00 78 1014.7
20260510101536 13 355 6.4 9.7 0.00 0.03 0.00 80 1014.5
20260510100014 14 17 4.8 6.4 0.00 0.03 0.00 77 1014.0
20260510094607 15 29 1.6 4.8 0.00 0.03 0.00 77 1013.6
20260510093032 15 27 1.6 3.2 0.00 0.03 0.00 75 1013.4
20260510091519 15 27 3.2 6.4 0.00 0.03 0.00 74 1013.3
20260510090059 16 27 6.4 8.0 0.00 0.03 0.00 72 1013.2
20260510084557 16 114 1.6 3.2 0.00 0.03 0.00 72 1013.3
20260510083033 15 114 1.6 4.8 0.00 0.03 0.00 74 1013.0
20260510081528 15 114 3.2 6.4 0.00 0.03 0.00 75 1012.8
20260510080058 15 84 3.2 6.4 0.00 0.03 0.00 75 1013.0
20260510074544 15 360 6.4 8.0 0.00 0.03 0.00 75 1013.1
20260510073044 15 11 4.8 8.0 0.00 0.03 0.00 74 1012.9
20260510071514 15 96 3.2 6.4 0.00 0.03 0.00 73 1012.8
20260510070052 15 107 3.2 6.4 0.00 0.03 0.00 72 1012.9
20260510064536 15 112 1.6 3.2 0.00 0.03 0.00 71 1012.8
20260510063017 16 112 0.0 1.6 0.00 0.03 0.00 71 1012.9
20260510061603 16 112 0.0 3.2 0.00 0.03 0.00 70 1013.0
20260510060043 17 355 1.6 3.2 0.00 0.03 0.00 69 1013.1
20260510054524 17 355 1.6 14.5 0.00 0.03 0.00 68 1013.0
20260510053007 17 12 9.7 20.9 0.00 0.03 0.00 65 1013.1
20260510051543 18 234 3.2 6.4 0.00 0.03 0.00 63 1012.6
20260510050022 18 227 4.8 8.0 0.00 0.05 0.03 64 1012.3
20260510044504 19 207 3.2 8.0 0.00 0.05 0.03 61 1012.3
20260510043046 19 207 4.8 8.0 0.00 0.05 0.03 59 1012.2
20260510041534 18 197 3.2 8.0 0.00 0.05 0.03 60 1012.2
20260510040014 18 220 4.8 6.4 0.00 0.10 0.03 62 1012.0
20260510034600 19 229 3.2 6.4 0.00 0.10 0.03 57 1011.9
20260510033041 18 234 4.8 8.0 0.00 0.10 0.03 59 1012.0
20260510031522 17 215 4.8 6.4 0.00 0.10 0.03 64 1011.9
20260510030004 17 217 4.8 6.4 0.00 0.10 0.03 64 1011.6
20260510024542 17 215 3.2 6.4 0.00 0.10 0.03 62 1011.5
20260510023028 18 211 1.6 4.8 0.00 0.10 0.03 60 1011.0
20260510021514 20 212 1.6 4.8 0.00 0.10 0.03 55 1010.6
20260510020052 20 215 1.6 6.4 0.00 0.10 0.03 55 1010.3
20260510014538 21 221 3.2 4.8 0.00 0.10 0.03 53 1010.0
20260510013019 21 236 0.0 3.2 0.00 0.10 0.03 51 1009.8
20260510011506 22 236 0.0 0.0 0.00 0.10 0.03 50 1009.7
20260510010043 23 236 0.0 0.0 0.00 0.10 0.03 50 1009.6
20260510004531 24 236 0.0 4.8 0.00 0.10 0.03 44 1009.4
20260510003024 25 236 1.6 4.8 0.00 0.10 0.03 41 1009.3
20260510001557 25 236 1.6 6.4 0.00 0.10 0.03 43 1009.3
20260510001501 25 236 1.6 8.0 0.00 0.10 0.03 42 1009.3
20260510000044 25 236 4.8 8.0 0.00 0.10 0.03 43 1009.4
20260509234535 25 242 1.6 11.3 0.00 0.10 0.03 39 1009.3
20260509233017 26 259 3.2 9.7 0.00 0.10 0.03 39 1009.3
20260509231505 26 189 3.2 8.0 0.00 0.10 0.03 38 1009.3
20260509230051 26 224 6.4 14.5 0.00 0.10 0.03 38 1009.5
20260509224540 26 228 4.8 12.9 0.00 0.10 0.03 37 1009.3
20260509223022 26 241 6.4 16.1 0.00 0.10 0.03 39 1009.4
20260509221511 26 288 3.2 17.7 0.00 0.10 0.03 36 1009.5
20260509220056 27 198 8.0 14.5 0.00 0.10 0.03 37 1009.5
20260509214542 27 270 11.3 17.7 0.00 0.10 0.03 41 1009.5
20260509213022 26 271 9.7 14.5 0.00 0.10 0.03 40 1009.4
20260509211509 26 332 9.7 20.9 0.00 0.10 0.03 39 1009.6
20260509210105 26 313 12.9 24.1 0.00 0.10 0.03 38 1009.7
20260509204535 26 333 9.7 22.5 0.00 0.10 0.03 37 1009.8
20260509203025 26 281 9.7 22.5 0.00 0.10 0.03 41 1009.8
20260509201559 26 286 14.5 19.3 0.00 0.10 0.03 40 1010.1
20260509201503 26 268 12.9 19.3 0.00 0.10 0.03 40 1010.0
20260509200051 26 341 14.5 24.1 0.00 0.10 0.03 40 1010.2
20260509194531 26 306 12.9 16.1 0.00 0.10 0.03 41 1010.3
20260509193015 26 288 6.4 20.9 0.00 0.10 0.03 40 1010.4
20260509191559 26 277 12.9 19.3 0.00 0.10 0.03 40 1010.5
20260509190037 26 297 11.3 19.3 0.00 0.10 0.03 43 1010.5
20260509184536 26 325 11.3 17.7 0.00 0.10 0.03 42 1010.5
20260509183007 25 263 12.9 22.5 0.00 0.10 0.03 39 1010.5
20260509181549 25 280 14.5 25.7 0.00 0.10 0.03 38 1010.5
20260509180029 25 215 8.0 19.3 0.00 0.10 0.03 44 1010.6
20260509174511 25 292 11.3 17.7 0.00 0.10 0.03 46 1010.6
20260509173054 24 277 8.0 20.9 0.00 0.10 0.03 50 1010.8
20260509171533 24 329 14.5 20.9 0.00 0.10 0.03 48 1010.9
20260509170019 24 272 9.7 20.9 0.00 0.10 0.03 51 1011.1
20260509164556 23 325 16.1 27.4 0.00 0.10 0.03 54 1010.9
20260509163044 23 298 19.3 27.4 0.00 0.10 0.03 54 1010.9
20260509161520 23 312 17.7 22.5 0.00 0.10 0.03 58 1011.1
20260509160100 23 308 8.0 19.3 0.00 0.10 0.03 59 1011.0
20260509160001 23 293 8.0 19.3 0.00 0.10 0.03 59 1011.1
20260509154548 22 233 11.3 19.3 0.00 0.10 0.03 58 1010.9
20260509153022 22 281 6.4 14.5 0.00 0.10 0.03 63 1010.7
20260509151507 22 227 6.4 12.9 0.00 0.10 0.03 63 1010.8
20260509150041 21 257 3.2 12.9 0.00 0.10 0.03 69 1010.9
20260509144520 20 300 11.3 19.3 0.00 0.10 0.03 70 1010.8